Flag for Canada Weather past 2 weeks in Laval, Quebec, Canada

36 °F

Passing clouds.

Feels Like: 29 °F
Forecast: 34 / 49 °F
Wind: 9 mph from Northwest

Location: Montreal / Mirabel

Current Time: Oct 10, 2015 at 7:57:15 AM

Latest Report: Oct 10, 2015 at 7:00 AM

Visibility: 45 mi

Pressure: 30.14 "Hg

Humidity: 87%

Dew point: 32 °F

Location of LavalLocation

Historic Weather in Laval — Graph


Laval temperature yesterday

Maximum temperature yesterday: 46 °F (at 6:00 PM)
Minimum temperature yesterday: 39 °F (at 7:00 AM)
Average temperature yesterday: 43 °F

Past Weeks' High & Low Weather Summary

High72 °F (Sep 27, 3:00 PM)100% (Sep 25, 11:00 PM)30.63 "Hg (Sep 25, 11:00 PM)
Low32 °F (Oct 8, 7:00 AM)33% (Oct 1, 3:00 PM)29.76 "Hg (Oct 9, 2:00 PM)
Average50 °F74%30.24 "Hg
* Reported Sep 25 6:00 AM — Oct 10 6:00 AM, Laval, Weather by CustomWeather, © 2015

Note: Actual official high and low records may vary slightly from our data, if they occured in-between our weather recording intervals... More about our weather records


Laval weather history for previous 24 hours

Time TempWeatherWind HumidityBarometerVisibility
6:00 AM
Sat, Oct 10
36 °FPassing clouds.6 mph87%30.12 "Hg25 mi
5:00 AM37 °FPassing clouds.5 mph81%30.09 "Hg25 mi
4:00 AM39 °FPassing clouds.10 mph81%30.06 "Hg25 mi
3:00 AM39 °FPassing clouds.2 mph93%30.05 "Hg25 mi
2:00 AM41 °FPassing clouds.6 mph87%30.02 "Hg25 mi
1:00 AM41 °FPassing clouds.3 mph93%30.00 "Hg25 mi
12:00 AM41 °FPassing clouds.5 mph93%29.98 "Hg25 mi
11:00 PM
Fri, Oct 9
41 °FPassing clouds.7 mph93%29.96 "Hg25 mi
10:00 PM43 °FPartly cloudy.6 mph87%29.94 "Hg25 mi
9:00 PM45 °FOvercast.5 mph81%29.91 "Hg25 mi
8:00 PM45 °FPartly cloudy.3 mph87%29.88 "Hg20 mi
7:00 PM46 °FMostly cloudy.7 mph87%29.85 "Hg15 mi
6:00 PM46 °FMore clouds than sun.3 mph93%29.81 "Hg10 mi
5:00 PM45 °FMostly cloudy.5 mph93%29.78 "Hg10 mi
4:00 PM45 °FCloudy.2 mph93%29.76 "Hg10 mi
3:00 PM43 °FLight rain. Fog.5 mph100%29.76 "Hg4 mi
2:00 PM43 °FLight rain. Fog.9 mph93%29.76 "Hg3 mi
1:00 PM41 °FLight rain. Fog.5 mph93%29.76 "Hg3 mi
12:00 PM41 °FLight rain. Fog.9 mph93%29.78 "Hg4 mi
11:00 AM39 °FLight rain. Fog.9 mph100%29.80 "Hg3 mi
10:00 AM41 °FLight rain. Fog.8 mph93%29.83 "Hg6 mi
9:00 AM41 °FLight rain. Mostly cloudy.8 mph93%29.84 "Hg10 mi
8:00 AM39 °FLight rain. Fog.8 mph93%29.88 "Hg6 mi
7:00 AM39 °FLight rain. Overcast.7 mph93%29.91 "Hg10 mi
Weather by CustomWeather, © 2015

See weather overviewHow to use our weather pages